Dewpoint
54 54 54 54 54 54 54 55 55 56 56 57 57 57 58 58 58 47 35 43 42 61 59 31 30 21 21 15 18 22 14 7 3 2 6 13 14 19 29 35 35 41 49 55 61
53 54 53 54 54 54 54 54 54 55 56 56 57 57 57 57 42 33 52 64 62 63 33 25 20 20 17 16 18 16 9 5 2 3 8 13 15 17 20 31 37 43 56 57 61
53 53 53 53 53 54 54 54 54 55 56 56 56 56 57 55 44 31 63 63 64 56 25 20 15 17 14 14 15 14 10 9 8 13 13 13 14 16 18 23 33 39 49 55 59
53 53 53 53 53 53 54 54 54 55 55 55 56 56 56 48 32 34 64 64 64 37 23 14 18 17 16 14 13 12 11 11 13 10 13 12 13 16 18 23 34 39 50 54 57
53 52 52 52 53 53 54 54 54 54 54 55 55 56 52 38 31 46 65 61 38 32 17 23 22 20 16 12 11 13 9 9 9 11 11 13 14 16 16 23 39 35 43 51 55
53 53 53 53 53 54 54 54 54 54 54 55 55 56 43 29 32 47 36 35 30 23 22 23 23 23 22 15 15 15 9 12 10 9 11 12 14 14 16 23 34 32 35 46 52
53 53 53 53 52 54 54 54 55 54 54 55 56 49 36 25 28 42 34 32 29 23 24 28 28 26 23 21 19 17 17 16 14 13 12 13 13 11 16 22 23 26 27 36 50
52 52 52 53 53 53 54 54 56 55 55 56 56 43 34 29 28 36 38 34 27 27 27 29 28 27 25 23 23 18 19 15 14 15 11 13 14 12 14 16 18 19 20 25 39
52 52 52 53 52 53 54 54 55 55 56 56 49 43 29 39 29 29 33 32 28 27 29 29 29 27 25 22 19 19 16 15 13 14 12 13 14 8 13 17 20 21 20 21 25
51 51 52 53 53 53 54 54 57 56 52 44 39 36 33 29 29 28 32 33 29 25 27 28 26 25 23 19 14 13 14 14 12 16 15 14 15 11 17 20 23 23 22 23 25
51 51 52 53 54 53 51 49 46 47 41 33 28 30 25 31 33 29 27 31 30 26 24 26 23 21 22 21 19 18 20 16 14 14 18 19 17 15 24 24 23 25 27 27 31
51 51 52 53 53 53 48 32 33 32 29 26 23 23 24 26 27 29 26 28 29 26 25 24 25 25 21 19 21 22 20 17 18 18 20 21 20 20 29 27 29 32 36 38 41
50 50 52 52 53 48 33 31 31 33 33 23 28 29 30 27 24 25 27 26 26 25 22 23 22 23 21 21 22 22 21 20 18 20 21 22 20 26 30 34 36 36 39 40 42
49 50 51 51 43 31 33 27 29 39 34 21 30 31 32 30 28 26 29 26 25 25 23 22 23 21 22 21 21 22 21 20 20 22 20 22 14 26 31 34 36 38 39 40 43
49 49 51 50 40 26 29 29 34 41 25 23 29 33 31 28 30 31 26 29 27 26 26 23 23 23 23 22 22 21 22 21 23 22 23 19 16 18 30 32 34 37 38 39 41
48 49 50 39 39 27 28 36 40 37 19 24 27 28 28 29 27 30 26 29 30 28 27 26 25 23 23 23 23 24 23 23 25 23 20 22 18 18 24 32 35 36 37 38 38
48 49 47 38 29 28 31 38 32 19 16 21 27 24 24 26 27 29 30 30 27 27 27 26 25 25 25 24 25 25 26 22 21 20 19 21 18 21 25 31 36 36 37 38 39
47 47 46 35 28 33 36 34 27 15 14 27 22 22 19 21 24 27 28 28 31 30 28 24 22 26 27 31 25 25 26 21 21 19 18 28 20 29 34 36 36 36 36 37 36
46 36 33 34 29 36 33 25 20 22 25 23 20 19 19 23 23 23 25 23 28 29 31 28 25 30 30 32 32 32 26 28 29 27 21 22 31 35 35 35 35 35 36 37 37
38 36 34 32 32 36 27 27 21 28 23 21 21 20 21 19 24 22 24 27 27 27 34 32 32 30 34 35 31 33 31 29 28 31 28 23 25 30 35 34 34 34 35 37 36
40 30 33 29 31 33 24 22 22 24 23 25 24 25 25 24 23 22 21 28 29 30 34 35 35 31 32 33 33 36 33 36 37 38 35 29 24 39 37 36 34 34 35 35 35
36 26 30 29 27 29 21 28 29 20 25 26 26 25 26 25 25 23 22 23 22 22 22 32 34 29 25 26 34 38 38 38 37 38 38 39 36 42 43 37 36 34 34 33 35
32 29 33 31 25 26 28 24 22 22 23 23 24 25 27 27 27 25 24 24 22 23 27 31 28 25 25 28 31 30 31 36 38 37 35 33 34 42 42 38 36 34 33 33 34
32 26 29 29 30 31 27 27 21 22 25 24 26 25 28 27 27 26 26 26 23 24 33 32 28 27 22 22 24 23 23 25 34 34 30 31 32 39 39 39 38 33 32 33 33
30 30 33 23 25 31 30 27 24 23 24 27 27 24 25 27 26 27 26 26 26 34 27 31 29 25 21 19 18 17 16 17 21 25 23 22 21 28 33 29 30 28 31 32 30
30 29 29 27 31 30 31 28 25 26 26 28 27 25 25 27 28 27 27 27 28 27 30 33 29 26 23 21 20 18 18 17 15 15 16 16 18 21 23 23 25 29 31 31 31
33 33 33 32 29 27 27 28 27 29 29 27 27 29 28 27 30 29 32 32 32 30 30 32 30 28 24 23 20 21 19 17 16 16 16 16 19 23 27 29 30 31 32 32 32
Lifted_Index
15 15 15 15 15 14 14 13 13 13 13 12 12 12 11 11 11 10 9 9 10 10 10 9 9 9 9 8 7 6 4 2 -0 -1 0 1 2 2 2 1 0 -1 -3 -5 -6
15 15 15 15 15 14 14 13 13 13 13 13 12 12 11 11 10 9 9 9 10 10 10 9 9 9 8 7 7 6 4 2 1 0 1 2 2 2 2 1 -0 -2 -4 -5 -6
15 15 15 15 15 15 14 13 13 13 13 13 12 12 11 10 8 8 9 9 10 10 10 10 9 9 8 7 6 5 4 2 2 3 3 3 3 3 2 1 -1 -2 -4 -5 -6
15 15 15 15 15 14 14 13 12 12 12 13 12 12 11 9 7 7 8 9 9 10 10 9 9 8 7 6 6 5 4 4 4 4 4 4 4 3 2 0 -1 -2 -3 -4 -5
14 14 14 15 14 14 13 13 12 12 12 13 12 11 10 8 6 7 8 9 9 10 9 8 7 7 6 5 5 5 5 5 5 5 5 4 4 4 3 1 0 -0 -2 -3 -4
14 13 13 14 14 13 13 12 11 11 12 12 12 11 9 8 7 7 8 9 9 9 8 7 7 6 6 5 5 5 5 5 5 5 5 5 4 4 3 2 2 2 1 -2 -3
14 13 13 13 13 13 12 11 11 11 11 12 11 10 8 8 7 7 7 8 9 9 8 7 7 6 6 6 5 5 5 5 5 5 5 4 4 4 3 3 3 3 2 1 -1
15 14 13 12 13 12 11 10 10 10 11 11 10 9 8 8 8 7 7 8 8 8 8 7 7 7 6 6 5 5 5 4 4 4 4 4 4 3 3 3 4 4 4 3 2
15 14 13 13 13 12 10 9 9 10 10 10 9 8 7 8 8 8 7 7 8 8 8 8 7 7 6 6 5 4 3 3 2 3 4 4 3 3 2 3 4 4 4 4 3
15 14 13 13 13 12 10 9 8 8 8 8 8 7 7 8 8 8 8 8 8 8 8 8 7 6 6 5 4 3 2 2 1 2 3 3 3 2 2 3 4 4 4 4 4
15 14 14 13 12 11 10 9 8 8 8 8 8 8 8 8 8 8 8 8 8 8 8 7 7 6 5 5 4 4 3 2 2 2 3 3 2 2 2 3 4 4 3 3 3
15 15 14 13 12 11 9 9 9 9 8 8 8 8 8 8 8 8 8 8 7 7 7 6 6 5 5 5 5 5 4 3 2 2 2 2 2 1 2 3 3 3 2 2 2
15 15 14 13 11 10 10 10 10 9 8 8 8 7 7 7 7 7 7 7 6 6 6 5 5 5 5 5 5 4 4 3 2 1 1 2 1 1 2 2 2 2 2 1 1
15 15 14 13 12 10 10 11 10 8 7 7 7 6 6 6 6 6 6 6 6 5 5 4 4 4 4 4 4 4 3 2 2 1 0 1 0 0 1 1 1 1 1 1 1
15 15 14 13 11 11 11 10 9 6 5 5 6 6 5 5 5 5 6 5 5 4 4 3 3 3 3 3 3 3 2 1 0 0 -0 0 -0 -0 -0 0 0 1 1 1 1
15 15 14 12 11 11 11 9 7 5 4 5 5 5 5 5 4 5 5 5 4 4 3 2 2 2 1 1 1 2 1 0 -0 -0 -0 -0 -0 -0 -0 -0 -0 1 1 1 1
14 14 13 12 11 11 10 8 5 5 5 5 5 5 5 5 4 4 4 4 4 3 2 1 1 1 1 1 0 0 -0 -0 -0 -0 -0 -0 -0 -0 -0 -0 -0 0 1 1 1
13 13 12 11 11 11 9 7 5 5 6 6 6 6 5 5 4 4 3 3 3 3 2 0 -0 0 1 0 -0 -1 -1 -1 -0 -0 -0 -0 -0 -0 -0 -0 0 1 1 1 2
12 11 11 11 11 10 8 6 6 6 6 6 6 6 5 4 4 3 3 2 2 2 1 -0 -1 -0 0 0 -0 -1 -1 -1 -1 -0 -0 -0 -0 -0 -0 0 1 1 1 2 2
11 10 10 11 11 9 8 7 6 6 7 6 6 5 4 4 4 3 2 2 2 2 1 -1 -1 -1 -1 -0 -0 -1 -1 -1 -1 -1 -0 -0 -0 -0 0 1 1 2 2 2 2
10 10 10 10 10 8 7 7 7 7 7 7 6 5 4 4 4 3 2 2 2 2 1 0 -0 -1 -1 -1 -1 -0 -0 -0 -0 -0 -0 -1 -0 -0 0 1 1 2 2 2 3
9 9 9 10 8 7 7 7 7 7 7 7 6 5 5 4 4 3 3 3 3 3 2 1 0 -0 -0 -0 -0 0 1 0 0 0 0 -0 -0 0 1 1 1 2 2 3 3
9 9 9 9 8 7 7 7 7 7 7 7 6 6 5 4 4 3 3 3 4 3 2 2 1 1 -0 -0 1 1 2 2 1 1 1 1 1 1 1 1 2 2 2 3 3
9 8 8 8 8 7 7 7 7 7 7 7 6 6 5 5 4 3 3 3 4 3 3 3 2 1 0 0 1 2 2 2 2 2 2 2 2 2 1 1 1 2 3 3 3
9 9 9 8 8 8 8 7 7 7 7 7 6 6 5 4 4 3 3 3 3 3 3 3 2 2 1 1 1 2 2 2 2 2 2 2 2 2 2 1 1 2 3 3 4
10 10 9 9 8 8 7 7 7 7 7 7 6 6 5 4 4 3 2 2 2 3 2 2 2 1 1 1 1 1 1 1 1 2 2 2 2 2 2 2 2 2 3 3 3
10 10 10 9 8 8 7 7 7 7 7 7 6 6 5 5 4 3 2 2 2 2 2 2 1 1 1 1 1 1 1 1 1 1 1 1 1 2 2 2 2 2 2 3 3